Data supplied by UK-AIR on 2/5/2024
All Data GMT hour ending 
Status: R =Ratified P=Provisional,P*=As supplied
,,Birmingham A4540 Roadside,,,,,,,,,,,,,,,,,,,,,,,
Date,time,"PM<sub>10</sub> particulate matter (Hourly measured)",status,unit,"Nitric oxide",status,unit,"Nitrogen dioxide",status,unit,"Nitrogen oxides as nitrogen dioxide",status,unit,"Ozone",status,unit,"PM<sub>2.5</sub> particulate matter (Hourly measured)",status,unit,"Black Carbon (880nm)",status,unit,"Blue Particulate matter (470nm)",status,unit,"Infra Red Particulate matter (950nm)",status,unit,"Red Particulate matter (660nm)",status,unit,"UV Particulate Matter (UV-BC)",status,unit,"UV Particulate Matter (370nm)",status,unit,"Yellow Particulate matter (590nm)",status,unit
 
01-01-2024,01:00,13.050,P,ugm-3 (FIDAS),8.92532,P,ugm-3,15.60503,P,ugm-3,29.29033,P,ugm-3,56.27874,P,ugm-3,8.962,P,ugm-3 (Ref.eq),,,,,,,,,,,,,,,,,,,,,
01-01-2024,02:00,6.800,P,ugm-3 (FIDAS),7.81568,P,ugm-3,15.74924,P,ugm-3,27.73312,P,ugm-3,58.47401,P,ugm-3,3.821,P,ugm-3 (Ref.eq),0.40,P,ugm-3,0.50,P,ugm-3,0.40,P,ugm-3,0.40,P,ugm-3,,,,0.50,P,ugm-3,0.40,P,ugm-3
01-01-2024,03:00,5.300,P,ugm-3 (FIDAS),4.74007,P,ugm-3,10.19496,P,ugm-3,17.46297,P,ugm-3,62.66498,P,ugm-3,3.255,P,ugm-3 (Ref.eq),0.60,P,ugm-3,0.70,P,ugm-3,0.60,P,ugm-3,0.60,P,ugm-3,,,,0.60,P,ugm-3,0.60,P,ugm-3
01-01-2024,04:00,5.000,P,ugm-3 (FIDAS),4.19731,P,ugm-3,8.91383,P,ugm-3,15.34961,P,ugm-3,60.51960,P,ugm-3,2.736,P,ugm-3 (Ref.eq),,,,,,,,,,,,,,,,,,,,,
01-01-2024,05:00,4.750,P,ugm-3 (FIDAS),3.47364,P,ugm-3,7.91009,P,ugm-3,13.23626,P,ugm-3,60.36993,P,ugm-3,2.594,P,ugm-3 (Ref.eq),0.20,P,ugm-3,0.20,P,ugm-3,0.20,P,ugm-3,0.20,P,ugm-3,,,,0.20,P,ugm-3,0.20,P,ugm-3
01-01-2024,06:00,4.350,P,ugm-3 (FIDAS),3.61837,P,ugm-3,6.57588,P,ugm-3,12.12397,P,ugm-3,62.71487,P,ugm-3,2.406,P,ugm-3 (Ref.eq),0.20,P,ugm-3,0.20,P,ugm-3,0.20,P,ugm-3,0.20,P,ugm-3,,,,0.20,P,ugm-3,0.20,P,ugm-3
01-01-2024,07:00,5.450,P,ugm-3 (FIDAS),3.32890,P,ugm-3,8.91062,P,ugm-3,14.01487,P,ugm-3,61.56735,P,ugm-3,2.830,P,ugm-3 (Ref.eq),,,,,,,,,,,,,,,,,,,,,
01-01-2024,08:00,7.450,P,ugm-3 (FIDAS),3.47364,P,ugm-3,9.57853,P,ugm-3,14.90470,P,ugm-3,63.16391,P,ugm-3,3.726,P,ugm-3 (Ref.eq),0.20,P,ugm-3,0.20,P,ugm-3,0.20,P,ugm-3,0.20,P,ugm-3,,,,0.20,P,ugm-3,0.20,P,ugm-3
01-01-2024,09:00,11.400,P,ugm-3 (FIDAS),3.79929,P,ugm-3,12.63853,P,ugm-3,18.46403,P,ugm-3,59.72132,P,ugm-3,5.425,P,ugm-3 (Ref.eq),0.40,P,ugm-3,0.40,P,ugm-3,0.40,P,ugm-3,0.40,P,ugm-3,,,,0.40,P,ugm-3,0.40,P,ugm-3
01-01-2024,10:00,12.725,P,ugm-3 (FIDAS),8.93738,P,ugm-3,20.66600,P,ugm-3,34.36979,P,ugm-3,52.43702,P,ugm-3,6.179,P,ugm-3 (Ref.eq),,,,,,,,,,,,,,,,,,,,,
01-01-2024,11:00,14.275,P,ugm-3 (FIDAS),6.87491,P,ugm-3,16.37606,P,ugm-3,26.91744,P,ugm-3,55.08132,P,ugm-3,6.769,P,ugm-3 (Ref.eq),0.60,P,ugm-3,0.70,P,ugm-3,0.60,P,ugm-3,0.60,P,ugm-3,,,,0.60,P,ugm-3,0.60,P,ugm-3
01-01-2024,12:00,14.650,P,ugm-3 (FIDAS),13.13469,P,ugm-3,24.46329,P,ugm-3,44.60286,P,ugm-3,46.40003,P,ugm-3,6.627,P,ugm-3 (Ref.eq),1.20,P,ugm-3,1.30,P,ugm-3,1.20,P,ugm-3,1.20,P,ugm-3,,,,1.20,P,ugm-3,1.20,P,ugm-3
01-01-2024,13:00,15.425,P,ugm-3 (FIDAS),15.30571,P,ugm-3,27.47449,P,ugm-3,50.94292,P,ugm-3,42.65809,P,ugm-3,6.675,P,ugm-3 (Ref.eq),,,,,,,,,,,,,,,,,,,,,
01-01-2024,14:00,19.025,P,ugm-3 (FIDAS),25.50952,P,ugm-3,41.80510,P,ugm-3,80.91916,P,ugm-3,30.78367,P,ugm-3,8.042,P,ugm-3 (Ref.eq),1.80,P,ugm-3,2.00,P,ugm-3,1.80,P,ugm-3,1.80,P,ugm-3,,,,1.90,P,ugm-3,1.80,P,ugm-3
01-01-2024,15:00,15.600,P,ugm-3 (FIDAS),22.75956,P,ugm-3,40.07090,P,ugm-3,74.96840,P,ugm-3,33.82712,P,ugm-3,7.618,P,ugm-3 (Ref.eq),1.40,P,ugm-3,1.60,P,ugm-3,1.40,P,ugm-3,1.40,P,ugm-3,,,,1.60,P,ugm-3,1.50,P,ugm-3
01-01-2024,16:00,13.700,P,ugm-3 (FIDAS),18.56225,P,ugm-3,37.55275,P,ugm-3,66.01446,P,ugm-3,32.87916,P,ugm-3,7.028,P,ugm-3 (Ref.eq),,,,,,,,,,,,,,,,,,,,,
01-01-2024,17:00,9.700,P,ugm-3 (FIDAS),9.15448,P,ugm-3,24.67105,P,ugm-3,38.70772,P,ugm-3,38.46712,P,ugm-3,6.226,P,ugm-3 (Ref.eq),1.10,P,ugm-3,1.20,P,ugm-3,1.00,P,ugm-3,1.10,P,ugm-3,,,,1.20,P,ugm-3,1.10,P,ugm-3
01-01-2024,18:00,6.200,P,ugm-3 (FIDAS),8.14134,P,ugm-3,19.71761,P,ugm-3,32.20082,P,ugm-3,44.05508,P,ugm-3,4.363,P,ugm-3 (Ref.eq),0.70,P,ugm-3,0.90,P,ugm-3,0.70,P,ugm-3,0.70,P,ugm-3,,,,0.90,P,ugm-3,0.80,P,ugm-3
01-01-2024,19:00,3.850,P,ugm-3 (FIDAS),7.38148,P,ugm-3,20.82710,P,ugm-3,32.14520,P,ugm-3,46.59960,P,ugm-3,2.995,P,ugm-3 (Ref.eq),,,,,,,,,,,,,,,,,,,,,
01-01-2024,20:00,3.225,P,ugm-3 (FIDAS),8.21370,P,ugm-3,23.33282,P,ugm-3,35.92699,P,ugm-3,47.69723,P,ugm-3,2.123,P,ugm-3 (Ref.eq),0.70,P,ugm-3,0.80,P,ugm-3,0.60,P,ugm-3,0.70,P,ugm-3,,,,0.80,P,ugm-3,0.70,P,ugm-3
01-01-2024,21:00,2.250,P,ugm-3 (FIDAS),9.08211,P,ugm-3,22.00128,P,ugm-3,35.92699,P,ugm-3,50.74067,P,ugm-3,1.557,P,ugm-3 (Ref.eq),0.80,P,ugm-3,0.90,P,ugm-3,0.80,P,ugm-3,0.80,P,ugm-3,,,,0.90,P,ugm-3,0.80,P,ugm-3
01-01-2024,22:00,1.925,P,ugm-3 (FIDAS),8.24989,P,ugm-3,19.60678,P,ugm-3,32.25643,P,ugm-3,55.48046,P,ugm-3,1.250,P,ugm-3 (Ref.eq),,,,,,,,,,,,,,,,,,,,,
01-01-2024,23:00,2.225,P,ugm-3 (FIDAS),11.10840,P,ugm-3,20.95209,P,ugm-3,37.98473,P,ugm-3,55.33078,P,ugm-3,1.274,P,ugm-3 (Ref.eq),0.60,P,ugm-3,0.70,P,ugm-3,0.60,P,ugm-3,0.60,P,ugm-3,,,,0.70,P,ugm-3,0.70,P,ugm-3
01-01-2024,24:00,1.275,P,ugm-3 (FIDAS),5.78940,P,ugm-3,11.47797,P,ugm-3,20.35492,P,ugm-3,69.60004,P,ugm-3,0.778,P,ugm-3 (Ref.eq),,,,,,,,,,,,,,,,,,,,,
02-01-2024,01:00,2.225,P,ugm-3 (FIDAS),3.91200,P,ugm-3,10.40701,P,ugm-3,16.40532,P,ugm-3,71.44606,P,ugm-3,1.156,P,ugm-3 (Ref.eq),,,,,,,,,,,,,,,,,,,,,
02-01-2024,02:00,4.200,P,ugm-3 (FIDAS),2.60800,P,ugm-3,5.65131,P,ugm-3,9.65019,P,ugm-3,75.50398,P,ugm-3,2.193,P,ugm-3 (Ref.eq),,,,,,,,,,,,,,,,,,,,,
02-01-2024,03:00,4.850,P,ugm-3 (FIDAS),2.28200,P,ugm-3,3.90565,P,ugm-3,7.40467,P,ugm-3,76.13596,P,ugm-3,2.830,P,ugm-3 (Ref.eq),,,,,,,,,,,,,,,,,,,,,
02-01-2024,04:00,7.525,P,ugm-3 (FIDAS),3.18755,P,ugm-3,5.69058,P,ugm-3,10.57809,P,ugm-3,73.04262,P,ugm-3,4.198,P,ugm-3 (Ref.eq),,,,,,,,,,,,,,,,,,,,,
02-01-2024,05:00,9.025,P,ugm-3 (FIDAS),10.64933,P,ugm-3,22.25346,P,ugm-3,38.58219,P,ugm-3,57.87530,P,ugm-3,5.094,P,ugm-3 (Ref.eq),,,,,,,,,,,,,,,,,,,,,
02-01-2024,06:00,10.475,P,ugm-3 (FIDAS),19.88599,P,ugm-3,36.54027,P,ugm-3,67.03169,P,ugm-3,41.31099,P,ugm-3,5.826,P,ugm-3 (Ref.eq),,,,,,,,,,,,,,,,,,,,,
02-01-2024,07:00,13.300,P,ugm-3 (FIDAS),27.60131,P,ugm-3,51.76791,P,ugm-3,94.08933,P,ugm-3,29.18711,P,ugm-3,7.453,P,ugm-3 (Ref.eq),,,,,,,,,,,,,,,,,,,,,
02-01-2024,08:00,17.525,P,ugm-3 (FIDAS),27.16665,P,ugm-3,51.09821,P,ugm-3,92.75315,P,ugm-3,35.97249,P,ugm-3,10.000,P,ugm-3 (Ref.eq),,,,,,,,,,,,,,,,,,,,,
02-01-2024,09:00,16.975,P,ugm-3 (FIDAS),34.12131,P,ugm-3,60.25454,P,ugm-3,112.57316,P,ugm-3,27.14152,P,ugm-3,9.764,P,ugm-3 (Ref.eq),,,,,,,,,,,,,,,,,,,,,
02-01-2024,10:00,8.825,P,ugm-3 (FIDAS),23.90665,P,ugm-3,47.35596,P,ugm-3,84.01231,P,ugm-3,34.22626,P,ugm-3,5.778,P,ugm-3 (Ref.eq),,,,,,,,,,,,,,,,,,,,,
02-01-2024,11:00,5.375,P,ugm-3 (FIDAS),9.34533,P,ugm-3,31.93593,P,ugm-3,46.26523,P,ugm-3,37.71873,P,ugm-3,3.325,P,ugm-3 (Ref.eq),,,,,,,,,,,,,,,,,,,,,
02-01-2024,12:00,3.800,P,ugm-3 (FIDAS),4.96244,P,ugm-3,21.00755,P,ugm-3,28.61652,P,ugm-3,53.13551,P,ugm-3,2.217,P,ugm-3 (Ref.eq),,,,,,,,,,,,,,,,,,,,,
02-01-2024,13:00,3.950,P,ugm-3 (FIDAS),10.25088,P,ugm-3,33.44249,P,ugm-3,49.16029,P,ugm-3,45.25250,P,ugm-3,2.311,P,ugm-3 (Ref.eq),,,,,,,,,,,,,,,,,,,,,
02-01-2024,14:00,5.150,P,ugm-3 (FIDAS),36.83797,P,ugm-3,68.94978,P,ugm-3,125.43389,P,ugm-3,15.66625,P,ugm-3,3.420,P,ugm-3 (Ref.eq),,,,,,,,,,,,,,,,,,,,,
02-01-2024,15:00,8.175,P,ugm-3 (FIDAS),50.92841,P,ugm-3,79.63576,P,ugm-3,157.72490,P,ugm-3,3.84172,P,ugm-3,6.085,P,ugm-3 (Ref.eq),,,,,,,,,,,,,,,,,,,,,
02-01-2024,16:00,4.000,P,ugm-3 (FIDAS),19.70488,P,ugm-3,46.00421,P,ugm-3,76.21793,P,ugm-3,37.91830,P,ugm-3,2.642,P,ugm-3 (Ref.eq),,,,,,,,,,,,,,,,,,,,,
02-01-2024,17:00,3.175,P,ugm-3 (FIDAS),15.75666,P,ugm-3,33.18452,P,ugm-3,57.34439,P,ugm-3,59.82111,P,ugm-3,2.193,P,ugm-3 (Ref.eq),,,,,,,,,,,,,,,,,,,,,
02-01-2024,18:00,3.250,P,ugm-3 (FIDAS),11.33755,P,ugm-3,31.33089,P,ugm-3,48.71489,P,ugm-3,59.57165,P,ugm-3,1.840,P,ugm-3 (Ref.eq),,,,,,,,,,,,,,,,,,,,,
02-01-2024,19:00,4.650,P,ugm-3 (FIDAS),9.88866,P,ugm-3,28.70884,P,ugm-3,43.87124,P,ugm-3,59.47186,P,ugm-3,2.075,P,ugm-3 (Ref.eq),,,,,,,,,,,,,,,,,,,,,
02-01-2024,20:00,6.450,P,ugm-3 (FIDAS),12.27932,P,ugm-3,22.31517,P,ugm-3,41.14321,P,ugm-3,60.27014,P,ugm-3,2.948,P,ugm-3 (Ref.eq),,,,,,,,,,,,,,,,,,,,,
02-01-2024,21:00,6.200,P,ugm-3 (FIDAS),12.24310,P,ugm-3,26.04521,P,ugm-3,44.81770,P,ugm-3,58.17466,P,ugm-3,3.656,P,ugm-3 (Ref.eq),,,,,,,,,,,,,,,,,,,,,
02-01-2024,22:00,7.175,P,ugm-3 (FIDAS),7.17200,P,ugm-3,12.77596,P,ugm-3,23.77287,P,ugm-3,66.15746,P,ugm-3,4.269,P,ugm-3 (Ref.eq),,,,,,,,,,,,,,,,,,,,,
02-01-2024,23:00,8.525,P,ugm-3 (FIDAS),6.15777,P,ugm-3,11.71439,P,ugm-3,21.15618,P,ugm-3,67.35488,P,ugm-3,4.670,P,ugm-3 (Ref.eq),,,,,,,,,,,,,,,,,,,,,
02-01-2024,24:00,10.950,P,ugm-3 (FIDAS),7.57044,P,ugm-3,15.06008,P,ugm-3,26.66792,P,ugm-3,62.66498,P,ugm-3,5.637,P,ugm-3 (Ref.eq),,,,,,,,,,,,,,,,,,,,,
03-01-2024,01:00,9.275,P,ugm-3 (FIDAS),8.60587,P,ugm-3,16.45489,P,ugm-3,29.65037,P,ugm-3,61.86670,P,ugm-3,5.165,P,ugm-3 (Ref.eq),,,,,,,,,,,,,,,,,,,,,
03-01-2024,02:00,7.950,P,ugm-3 (FIDAS),4.64137,P,ugm-3,14.58236,P,ugm-3,21.69902,P,ugm-3,56.74440,P,ugm-3,4.528,P,ugm-3 (Ref.eq),,,,,,,,,,,,,,,,,,,,,
03-01-2024,03:00,6.475,P,ugm-3 (FIDAS),6.30936,P,ugm-3,13.84544,P,ugm-3,23.51966,P,ugm-3,56.22885,P,ugm-3,3.726,P,ugm-3 (Ref.eq),,,,,,,,,,,,,,,,,,,,,
03-01-2024,04:00,4.450,P,ugm-3 (FIDAS),6.74449,P,ugm-3,11.56198,P,ugm-3,21.90338,P,ugm-3,62.86455,P,ugm-3,2.736,P,ugm-3 (Ref.eq),,,,,,,,,,,,,,,,,,,,,
03-01-2024,05:00,5.825,P,ugm-3 (FIDAS),8.23117,P,ugm-3,14.29846,P,ugm-3,26.91942,P,ugm-3,56.22885,P,ugm-3,3.750,P,ugm-3 (Ref.eq),,,,,,,,,,,,,,,,,,,,,
03-01-2024,06:00,5.200,P,ugm-3 (FIDAS),15.48331,P,ugm-3,22.07243,P,ugm-3,45.81317,P,ugm-3,56.27874,P,ugm-3,3.325,P,ugm-3 (Ref.eq),,,,,,,,,,,,,,,,,,,,,
03-01-2024,07:00,5.675,P,ugm-3 (FIDAS),26.07143,P,ugm-3,36.32392,P,ugm-3,76.29955,P,ugm-3,39.11572,P,ugm-3,3.208,P,ugm-3 (Ref.eq),,,,,,,,,,,,,,,,,,,,,
03-01-2024,08:00,6.175,P,ugm-3 (FIDAS),28.50089,P,ugm-3,41.12606,P,ugm-3,84.82682,P,ugm-3,38.66669,P,ugm-3,3.514,P,ugm-3 (Ref.eq),,,,,,,,,,,,,,,,,,,,,
03-01-2024,09:00,10.450,P,ugm-3 (FIDAS),44.56437,P,ugm-3,55.73232,P,ugm-3,124.06340,P,ugm-3,25.64475,P,ugm-3,5.613,P,ugm-3 (Ref.eq),,,,,,,,,,,,,,,,,,,,,
03-01-2024,10:00,12.400,P,ugm-3 (FIDAS),55.47883,P,ugm-3,64.63458,P,ugm-3,149.70094,P,ugm-3,20.95485,P,ugm-3,7.453,P,ugm-3 (Ref.eq),,,,,,,,,,,,,,,,,,,,,
03-01-2024,11:00,11.700,P,ugm-3 (FIDAS),35.89807,P,ugm-3,50.46111,P,ugm-3,105.50405,P,ugm-3,35.82282,P,ugm-3,6.368,P,ugm-3 (Ref.eq),,,,,,,,,,,,,,,,,,,,,
03-01-2024,12:00,7.500,P,ugm-3 (FIDAS),22.98927,P,ugm-3,39.82369,P,ugm-3,75.07341,P,ugm-3,45.75142,P,ugm-3,4.316,P,ugm-3 (Ref.eq),,,,,,,,,,,,,,,,,,,,,
03-01-2024,13:00,5.150,P,ugm-3 (FIDAS),16.42609,P,ugm-3,31.94081,P,ugm-3,57.12713,P,ugm-3,52.38713,P,ugm-3,2.830,P,ugm-3 (Ref.eq),,,,,,,,,,,,,,,,,,,,,
03-01-2024,14:00,5.375,P,ugm-3 (FIDAS),21.43006,P,ugm-3,36.64106,P,ugm-3,69.50003,P,ugm-3,45.75142,P,ugm-3,2.571,P,ugm-3 (Ref.eq),,,,,,,,,,,,,,,,,,,,,
03-01-2024,15:00,4.525,P,ugm-3 (FIDAS),25.27369,P,ugm-3,38.82898,P,ugm-3,77.58143,P,ugm-3,40.26325,P,ugm-3,2.241,P,ugm-3 (Ref.eq),,,,,,,,,,,,,,,,,,,,,
03-01-2024,16:00,4.525,P,ugm-3 (FIDAS),22.37284,P,ugm-3,41.21474,P,ugm-3,75.51928,P,ugm-3,36.77077,P,ugm-3,2.193,P,ugm-3 (Ref.eq),,,,,,,,,,,,,,,,,,,,,
03-01-2024,17:00,4.850,P,ugm-3 (FIDAS),23.38814,P,ugm-3,48.74258,P,ugm-3,84.60388,P,ugm-3,29.58625,P,ugm-3,2.665,P,ugm-3 (Ref.eq),,,,,,,,,,,,,,,,,,,,,
03-01-2024,18:00,5.200,P,ugm-3 (FIDAS),27.19551,P,ugm-3,52.04503,P,ugm-3,93.74422,P,ugm-3,25.29550,P,ugm-3,3.585,P,ugm-3 (Ref.eq),,,,,,,,,,,,,,,,,,,,,
03-01-2024,19:00,6.850,P,ugm-3 (FIDAS),18.60173,P,ugm-3,42.37112,P,ugm-3,70.89337,P,ugm-3,34.52561,P,ugm-3,4.151,P,ugm-3 (Ref.eq),,,,,,,,,,,,,,,,,,,,,
03-01-2024,20:00,6.825,P,ugm-3 (FIDAS),17.36886,P,ugm-3,38.29797,P,ugm-3,64.92986,P,ugm-3,39.01594,P,ugm-3,4.151,P,ugm-3 (Ref.eq),,,,,,,,,,,,,,,,,,,,,
03-01-2024,21:00,5.275,P,ugm-3 (FIDAS),14.83062,P,ugm-3,31.60048,P,ugm-3,54.34044,P,ugm-3,42.50841,P,ugm-3,3.443,P,ugm-3 (Ref.eq),,,,,,,,,,,,,,,,,,,,,
03-01-2024,22:00,4.675,P,ugm-3 (FIDAS),14.46801,P,ugm-3,29.03537,P,ugm-3,51.21935,P,ugm-3,44.15486,P,ugm-3,2.877,P,ugm-3 (Ref.eq),,,,,,,,,,,,,,,,,,,,,
03-01-2024,23:00,4.750,P,ugm-3 (FIDAS),16.57113,P,ugm-3,28.31866,P,ugm-3,53.72737,P,ugm-3,41.56045,P,ugm-3,2.712,P,ugm-3 (Ref.eq),,,,,,,,,,,,,,,,,,,,,
03-01-2024,24:00,3.400,P,ugm-3 (FIDAS),8.55752,P,ugm-3,18.81411,P,ugm-3,31.93546,P,ugm-3,45.95099,P,ugm-3,2.146,P,ugm-3 (Ref.eq),,,,,,,,,,,,,,,,,,,,,
04-01-2024,01:00,3.275,P,ugm-3 (FIDAS),8.56660,P,ugm-3,16.10047,P,ugm-3,29.23574,P,ugm-3,46.03415,P,ugm-3,2.075,P,ugm-3 (Ref.eq),,,,,,,,,,,,,,,,,,,,,
04-01-2024,02:00,2.475,P,ugm-3 (FIDAS),3.09753,P,ugm-3,8.86411,P,ugm-3,13.61359,P,ugm-3,55.74655,P,ugm-3,1.462,P,ugm-3 (Ref.eq),,,,,,,,,,,,,,,,,,,,,
04-01-2024,03:00,2.725,P,ugm-3 (FIDAS),5.00928,P,ugm-3,11.28896,P,ugm-3,18.96976,P,ugm-3,54.23315,P,ugm-3,1.509,P,ugm-3 (Ref.eq),,,,,,,,,,,,,,,,,,,,,
04-01-2024,04:00,3.700,P,ugm-3 (FIDAS),6.42495,P,ugm-3,14.30709,P,ugm-3,24.15854,P,ugm-3,53.53465,P,ugm-3,2.005,P,ugm-3 (Ref.eq),,,,,,,,,,,,,,,,,,,,,
04-01-2024,05:00,5.275,P,ugm-3 (FIDAS),11.68833,P,ugm-3,19.62711,P,ugm-3,37.54896,P,ugm-3,52.83616,P,ugm-3,2.712,P,ugm-3 (Ref.eq),,,,,,,,,,,,,,,,,,,,,
04-01-2024,06:00,7.300,P,ugm-3 (FIDAS),16.55241,P,ugm-3,26.22888,P,ugm-3,51.60890,P,ugm-3,43.85551,P,ugm-3,3.726,P,ugm-3 (Ref.eq),,,,,,,,,,,,,,,,,,,,,
04-01-2024,07:00,10.875,P,ugm-3 (FIDAS),28.13184,P,ugm-3,42.89854,P,ugm-3,86.03343,P,ugm-3,34.07658,P,ugm-3,5.236,P,ugm-3 (Ref.eq),,,,,,,,,,,,,,,,,,,,,
04-01-2024,08:00,13.200,P,ugm-3 (FIDAS),35.97246,P,ugm-3,54.36545,P,ugm-3,109.52245,P,ugm-3,28.13937,P,ugm-3,6.156,P,ugm-3 (Ref.eq),,,,,,,,,,,,,,,,,,,,,
04-01-2024,09:00,13.425,P,ugm-3 (FIDAS),51.18181,P,ugm-3,60.11314,P,ugm-3,138.59081,P,ugm-3,21.35399,P,ugm-3,6.651,P,ugm-3 (Ref.eq),,,,,,,,,,,,,,,,,,,,,
04-01-2024,10:00,16.275,P,ugm-3 (FIDAS),71.65453,P,ugm-3,70.23236,P,ugm-3,180.10111,P,ugm-3,12.97205,P,ugm-3,7.524,P,ugm-3 (Ref.eq),,,,,,,,,,,,,,,,,,,,,
04-01-2024,11:00,20.375,P,ugm-3 (FIDAS),51.61740,P,ugm-3,56.04185,P,ugm-3,135.18742,P,ugm-3,21.05464,P,ugm-3,8.514,P,ugm-3 (Ref.eq),,,,,,,,,,,,,,,,,,,,,
04-01-2024,12:00,22.825,P,ugm-3 (FIDAS),57.09857,P,ugm-3,49.08813,P,ugm-3,136.63805,P,ugm-3,23.24991,P,ugm-3,8.703,P,ugm-3 (Ref.eq),,,,,,,,,,,,,,,,,,,,,
04-01-2024,13:00,29.125,P,ugm-3 (FIDAS),61.63596,P,ugm-3,60.04057,P,ugm-3,154.54773,P,ugm-3,18.11098,P,ugm-3,11.061,P,ugm-3 (Ref.eq),,,,,,,,,,,,,,,,,,,,,
04-01-2024,14:00,34.650,P,ugm-3 (FIDAS),87.40836,P,ugm-3,72.74607,P,ugm-3,206.77035,P,ugm-3,10.72689,P,ugm-3,13.113,P,ugm-3 (Ref.eq),,,,,,,,,,,,,,,,,,,,,
04-01-2024,15:00,26.175,P,ugm-3 (FIDAS),40.00167,P,ugm-3,62.07998,P,ugm-3,123.41501,P,ugm-3,11.72474,P,ugm-3,11.226,P,ugm-3 (Ref.eq),,,,,,,,,,,,,,,,,,,,,
04-01-2024,16:00,21.825,P,ugm-3 (FIDAS),21.30760,P,ugm-3,59.33212,P,ugm-3,92.00332,P,ugm-3,4.29076,P,ugm-3,12.429,P,ugm-3 (Ref.eq),,,,,,,,,,,,,,,,,,,,,
04-01-2024,17:00,23.825,P,ugm-3 (FIDAS),35.13758,P,ugm-3,62.73134,P,ugm-3,116.60821,P,ugm-3,0.99785,P,ugm-3,14.528,P,ugm-3 (Ref.eq),,,,,,,,,,,,,,,,,,,,,
04-01-2024,18:00,23.875,P,ugm-3 (FIDAS),42.43371,P,ugm-3,64.54396,P,ugm-3,129.60808,P,ugm-3,2.19527,P,ugm-3,15.731,P,ugm-3 (Ref.eq),,,,,,,,,,,,,,,,,,,,,
04-01-2024,19:00,26.400,P,ugm-3 (FIDAS),46.09993,P,ugm-3,66.06407,P,ugm-3,136.74963,P,ugm-3,1.19742,P,ugm-3,15.967,P,ugm-3 (Ref.eq),,,,,,,,,,,,,,,,,,,,,
04-01-2024,20:00,23.700,P,ugm-3 (FIDAS),36.77104,P,ugm-3,61.78895,P,ugm-3,118.17043,P,ugm-3,1.49678,P,ugm-3,15.189,P,ugm-3 (Ref.eq),,,,,,,,,,,,,,,,,,,,,
04-01-2024,21:00,21.650,P,ugm-3 (FIDAS),16.80651,P,ugm-3,52.17377,P,ugm-3,77.94339,P,ugm-3,2.64430,P,ugm-3,14.670,P,ugm-3 (Ref.eq),,,,,,,,,,,,,,,,,,,,,
04-01-2024,22:00,20.325,P,ugm-3 (FIDAS),10.12746,P,ugm-3,47.57378,P,ugm-3,63.10234,P,ugm-3,8.48173,P,ugm-3,12.736,P,ugm-3 (Ref.eq),,,,,,,,,,,,,,,,,,,,,
04-01-2024,23:00,24.200,P,ugm-3 (FIDAS),26.49838,P,ugm-3,50.92669,P,ugm-3,91.55698,P,ugm-3,7.83312,P,ugm-3,14.434,P,ugm-3 (Ref.eq),,,,,,,,,,,,,,,,,,,,,
04-01-2024,24:00,24.100,P,ugm-3 (FIDAS),21.48910,P,ugm-3,47.28142,P,ugm-3,80.23092,P,ugm-3,12.12388,P,ugm-3,14.811,P,ugm-3 (Ref.eq),,,,,,,,,,,,,,,,,,,,,
05-01-2024,01:00,20.825,P,ugm-3 (FIDAS),14.43815,P,ugm-3,43.84285,P,ugm-3,65.98104,P,ugm-3,15.69951,P,ugm-3,12.642,P,ugm-3 (Ref.eq),,,,,,,,,,,,,,,,,,,,,
05-01-2024,02:00,19.475,P,ugm-3 (FIDAS),5.23262,P,ugm-3,26.15881,P,ugm-3,34.18205,P,ugm-3,25.14582,P,ugm-3,13.160,P,ugm-3 (Ref.eq),,,,,,,,,,,,,,,,,,,,,
05-01-2024,03:00,21.925,P,ugm-3 (FIDAS),4.86924,P,ugm-3,26.77184,P,ugm-3,34.23790,P,ugm-3,23.10023,P,ugm-3,16.156,P,ugm-3 (Ref.eq),,,,,,,,,,,,,,,,,,,,,
05-01-2024,04:00,18.650,P,ugm-3 (FIDAS),6.17740,P,ugm-3,29.01086,P,ugm-3,38.48273,P,ugm-3,26.99184,P,ugm-3,13.609,P,ugm-3 (Ref.eq),,,,,,,,,,,,,,,,,,,,,
05-01-2024,05:00,14.450,P,ugm-3 (FIDAS),13.77196,P,ugm-3,31.55269,P,ugm-3,52.66940,P,ugm-3,26.99184,P,ugm-3,10.543,P,ugm-3 (Ref.eq),,,,,,,,,,,,,,,,,,,,,
05-01-2024,06:00,12.750,P,ugm-3 (FIDAS),15.37082,P,ugm-3,35.18912,P,ugm-3,58.75738,P,ugm-3,27.59055,P,ugm-3,7.288,P,ugm-3 (Ref.eq),,,,,,,,,,,,,,,,,,,,,
05-01-2024,07:00,11.750,P,ugm-3 (FIDAS),25.47268,P,ugm-3,48.07316,P,ugm-3,87.13072,P,ugm-3,17.36259,P,ugm-3,6.321,P,ugm-3 (Ref.eq),,,,,,,,,,,,,,,,,,,,,
05-01-2024,08:00,16.250,P,ugm-3 (FIDAS),52.43520,P,ugm-3,63.03105,P,ugm-3,143.43057,P,ugm-3,8.08259,P,ugm-3,6.580,P,ugm-3 (Ref.eq),2.20,P,ugm-3,2.50,P,ugm-3,2.40,P,ugm-3,2.20,P,ugm-3,,,,2.40,P,ugm-3,2.30,P,ugm-3
05-01-2024,09:00,17.200,P,ugm-3 (FIDAS),48.47440,P,ugm-3,62.73694,P,ugm-3,137.06332,P,ugm-3,9.67915,P,ugm-3,6.580,P,ugm-3 (Ref.eq),2.00,P,ugm-3,2.30,P,ugm-3,2.10,P,ugm-3,2.00,P,ugm-3,,,,2.20,P,ugm-3,2.10,P,ugm-3
05-01-2024,10:00,19.875,P,ugm-3 (FIDAS),41.31589,P,ugm-3,65.78205,P,ugm-3,129.13219,P,ugm-3,13.07184,P,ugm-3,7.925,P,ugm-3 (Ref.eq),2.40,P,ugm-3,2.80,P,ugm-3,2.60,P,ugm-3,2.50,P,ugm-3,,,,2.70,P,ugm-3,2.60,P,ugm-3
05-01-2024,11:00,17.975,P,ugm-3 (FIDAS),45.05866,P,ugm-3,50.04551,P,ugm-3,119.13450,P,ugm-3,22.65120,P,ugm-3,7.382,P,ugm-3 (Ref.eq),3.60,P,ugm-3,3.90,P,ugm-3,3.60,P,ugm-3,3.60,P,ugm-3,,,,3.80,P,ugm-3,3.70,P,ugm-3
05-01-2024,12:00,22.750,P,ugm-3 (FIDAS),39.53534,P,ugm-3,48.96362,P,ugm-3,109.58363,P,ugm-3,27.84002,P,ugm-3,8.278,P,ugm-3 (Ref.eq),,,,,,,,,,,,,,,,,,,,,
05-01-2024,13:00,26.550,P,ugm-3 (FIDAS),23.18341,P,ugm-3,39.96589,P,ugm-3,75.51329,P,ugm-3,35.47357,P,ugm-3,8.491,P,ugm-3 (Ref.eq),,,,,,,,,,,,,,,,,,,,,
05-01-2024,14:00,31.550,P,ugm-3 (FIDAS),30.81431,P,ugm-3,48.81925,P,ugm-3,96.06720,P,ugm-3,30.48432,P,ugm-3,8.986,P,ugm-3 (Ref.eq),,,,,,,,,,,,,,,,,,,,,
05-01-2024,15:00,26.300,P,ugm-3 (FIDAS),42.29700,P,ugm-3,59.58604,P,ugm-3,124.44054,P,ugm-3,24.14797,P,ugm-3,7.571,P,ugm-3 (Ref.eq),,,,,,,,,,,,,,,,,,,,,
05-01-2024,16:00,27.450,P,ugm-3 (FIDAS),45.49472,P,ugm-3,60.54752,P,ugm-3,130.30511,P,ugm-3,17.31270,P,ugm-3,7.500,P,ugm-3 (Ref.eq),,,,,,,,,,,,,,,,,,,,,
05-01-2024,17:00,15.575,P,ugm-3 (FIDAS),38.59057,P,ugm-3,54.99221,P,ugm-3,114.16358,P,ugm-3,15.76603,P,ugm-3,6.038,P,ugm-3 (Ref.eq),,,,,,,,,,,,,,,,,,,,,
05-01-2024,18:00,16.450,P,ugm-3 (FIDAS),35.75623,P,ugm-3,50.17823,P,ugm-3,105.00369,P,ugm-3,17.11313,P,ugm-3,7.736,P,ugm-3 (Ref.eq),,,,,,,,,,,,,,,,,,,,,
05-01-2024,19:00,15.325,P,ugm-3 (FIDAS),31.86810,P,ugm-3,53.68241,P,ugm-3,102.54615,P,ugm-3,15.86582,P,ugm-3,8.349,P,ugm-3 (Ref.eq),,,,,,,,,,,,,,,,,,,,,
05-01-2024,20:00,15.000,P,ugm-3 (FIDAS),24.34621,P,ugm-3,48.12479,P,ugm-3,85.45513,P,ugm-3,16.31485,P,ugm-3,8.656,P,ugm-3 (Ref.eq),,,,,,,,,,,,,,,,,,,,,
05-01-2024,21:00,17.550,P,ugm-3 (FIDAS),42.91474,P,ugm-3,57.41008,P,ugm-3,123.21177,P,ugm-3,12.47313,P,ugm-3,8.844,P,ugm-3 (Ref.eq),,,,,,,,,,,,,,,,,,,,,
05-01-2024,22:00,15.650,P,ugm-3 (FIDAS),29.36081,P,ugm-3,49.09307,P,ugm-3,94.11235,P,ugm-3,15.36689,P,ugm-3,8.491,P,ugm-3 (Ref.eq),,,,,,,,,,,,,,,,,,,,,
05-01-2024,23:00,13.200,P,ugm-3 (FIDAS),17.66009,P,ugm-3,40.22447,P,ugm-3,67.30290,P,ugm-3,24.69679,P,ugm-3,7.028,P,ugm-3 (Ref.eq),,,,,,,,,,,,,,,,,,,,,
05-01-2024,24:00,13.425,P,ugm-3 (FIDAS),18.24149,P,ugm-3,38.27179,P,ugm-3,66.24169,P,ugm-3,22.75098,P,ugm-3,7.311,P,ugm-3 (Ref.eq),,,,,,,,,,,,,,,,,,,,,
06-01-2024,01:00,10.925,P,ugm-3 (FIDAS),16.34500,P,ugm-3,25.55760,P,ugm-3,50.61958,P,ugm-3,27.93980,P,ugm-3,6.557,P,ugm-3 (Ref.eq),,,,,,,,,,,,,,,,,,,,,
06-01-2024,02:00,11.100,P,ugm-3 (FIDAS),9.36079,P,ugm-3,20.01464,P,ugm-3,34.36764,P,ugm-3,32.52991,P,ugm-3,6.816,P,ugm-3 (Ref.eq),,,,,,,,,,,,,,,,,,,,,
06-01-2024,03:00,12.425,P,ugm-3 (FIDAS),4.07413,P,ugm-3,15.89450,P,ugm-3,22.14141,P,ugm-3,34.17636,P,ugm-3,7.665,P,ugm-3 (Ref.eq),,,,,,,,,,,,,,,,,,,,,
06-01-2024,04:00,11.325,P,ugm-3 (FIDAS),5.67467,P,ugm-3,16.96286,P,ugm-3,25.66390,P,ugm-3,31.98109,P,ugm-3,6.840,P,ugm-3 (Ref.eq),,,,,,,,,,,,,,,,,,,,,
06-01-2024,05:00,10.500,P,ugm-3 (FIDAS),5.27454,P,ugm-3,18.02370,P,ugm-3,26.11121,P,ugm-3,29.03744,P,ugm-3,7.217,P,ugm-3 (Ref.eq),,,,,,,,,,,,,,,,,,,,,
06-01-2024,06:00,12.675,P,ugm-3 (FIDAS),8.62114,P,ugm-3,25.19309,P,ugm-3,38.41199,P,ugm-3,23.89851,P,ugm-3,7.783,P,ugm-3 (Ref.eq),,,,,,,,,,,,,,,,,,,,,
06-01-2024,07:00,11.225,P,ugm-3 (FIDAS),13.16815,P,ugm-3,34.37986,P,ugm-3,54.57074,P,ugm-3,17.76173,P,ugm-3,7.052,P,ugm-3 (Ref.eq),,,,,,,,,,,,,,,,,,,,,
06-01-2024,08:00,13.700,P,ugm-3 (FIDAS),10.47632,P,ugm-3,31.74185,P,ugm-3,47.80531,P,ugm-3,23.84862,P,ugm-3,9.009,P,ugm-3 (Ref.eq),,,,,,,,,,,,,,,,,,,,,
06-01-2024,09:00,16.850,P,ugm-3 (FIDAS),17.71517,P,ugm-3,35.45929,P,ugm-3,62.62216,P,ugm-3,23.20001,P,ugm-3,10.543,P,ugm-3 (Ref.eq),,,,,,,,,,,,,,,,,,,,,
06-01-2024,10:00,17.725,P,ugm-3 (FIDAS),28.40974,P,ugm-3,43.49499,P,ugm-3,87.05599,P,ugm-3,23.64905,P,ugm-3,9.953,P,ugm-3 (Ref.eq),,,,,,,,,,,,,,,,,,,,,
06-01-2024,11:00,16.600,P,ugm-3 (FIDAS),25.57241,P,ugm-3,34.31465,P,ugm-3,73.52513,P,ugm-3,31.13292,P,ugm-3,9.717,P,ugm-3 (Ref.eq),,,,,,,,,,,,,,,,,,,,,
06-01-2024,12:00,14.375,P,ugm-3 (FIDAS),21.75291,P,ugm-3,34.46804,P,ugm-3,67.82204,P,ugm-3,33.82712,P,ugm-3,7.382,P,ugm-3 (Ref.eq),,,,,,,,,,,,,,,,,,,,,
06-01-2024,13:00,16.825,P,ugm-3 (FIDAS),29.53740,P,ugm-3,35.44781,P,ugm-3,80.73786,P,ugm-3,33.77722,P,ugm-3,8.042,P,ugm-3 (Ref.eq),,,,,,,,,,,,,,,,,,,,,
06-01-2024,14:00,14.250,P,ugm-3 (FIDAS),23.49897,P,ugm-3,40.12178,P,ugm-3,76.15302,P,ugm-3,34.42583,P,ugm-3,7.500,P,ugm-3 (Ref.eq),,,,,,,,,,,,,,,,,,,,,
06-01-2024,15:00,13.300,P,ugm-3 (FIDAS),25.24502,P,ugm-3,42.75623,P,ugm-3,81.46472,P,ugm-3,25.69464,P,ugm-3,7.689,P,ugm-3 (Ref.eq),,,,,,,,,,,,,,,,,,,,,
06-01-2024,16:00,13.900,P,ugm-3 (FIDAS),31.82910,P,ugm-3,48.14859,P,ugm-3,96.95253,P,ugm-3,21.95270,P,ugm-3,7.193,P,ugm-3 (Ref.eq),,,,,,,,,,,,,,,,,,,,,
06-01-2024,17:00,15.225,P,ugm-3 (FIDAS),32.55662,P,ugm-3,51.05879,P,ugm-3,100.97824,P,ugm-3,18.16087,P,ugm-3,7.712,P,ugm-3 (Ref.eq),,,,,,,,,,,,,,,,,,,,,
06-01-2024,18:00,16.025,P,ugm-3 (FIDAS),41.21413,P,ugm-3,57.96858,P,ugm-3,121.16270,P,ugm-3,9.13033,P,ugm-3,9.316,P,ugm-3 (Ref.eq),,,,,,,,,,,,,,,,,,,,,
06-01-2024,19:00,19.150,P,ugm-3 (FIDAS),42.77831,P,ugm-3,61.77652,P,ugm-3,127.36901,P,ugm-3,4.73979,P,ugm-3,12.524,P,ugm-3 (Ref.eq),,,,,,,,,,,,,,,,,,,,,
06-01-2024,20:00,20.300,P,ugm-3 (FIDAS),43.94234,P,ugm-3,64.96792,P,ugm-3,132.34523,P,ugm-3,2.99355,P,ugm-3,15.307,P,ugm-3 (Ref.eq),,,,,,,,,,,,,,,,,,,,,
06-01-2024,21:00,22.100,P,ugm-3 (FIDAS),46.81605,P,ugm-3,58.94015,P,ugm-3,130.72376,P,ugm-3,2.64430,P,ugm-3,17.052,P,ugm-3 (Ref.eq),,,,,,,,,,,,,,,,,,,,,
06-01-2024,22:00,19.225,P,ugm-3 (FIDAS),35.06657,P,ugm-3,56.49175,P,ugm-3,110.25974,P,ugm-3,3.39269,P,ugm-3,15.283,P,ugm-3 (Ref.eq),,,,,,,,,,,,,,,,,,,,,
06-01-2024,23:00,19.375,P,ugm-3 (FIDAS),42.30542,P,ugm-3,61.77474,P,ugm-3,126.64214,P,ugm-3,2.39484,P,ugm-3,15.943,P,ugm-3 (Ref.eq),,,,,,,,,,,,,,,,,,,,,
06-01-2024,24:00,21.800,P,ugm-3 (FIDAS),37.50377,P,ugm-3,55.21492,P,ugm-3,112.71989,P,ugm-3,2.89377,P,ugm-3,16.910,P,ugm-3 (Ref.eq),,,,,,,,,,,,,,,,,,,,,
07-01-2024,01:00,20.450,P,ugm-3 (FIDAS),34.52103,P,ugm-3,53.19191,P,ugm-3,106.12342,P,ugm-3,2.99355,P,ugm-3,16.156,P,ugm-3 (Ref.eq),,,,,,,,,,,,,,,,,,,,,